Temp
2 2 3 3 3 3 3 3 2 4 4 5 4 3 2 2 2 2 2 1 1 0 0 -0 -1 -1 -1 -1 -2 -2 -2 -3 -3 -3 -3 -3 -3 -3 -3 -2 -2 -2 -1 -1
2 2 2 2 2 2 2 2 2 3 3 3 2 2 1 1 -0 0 -0 -0 -0 -1 -1 -1 -2 -2 -2 -2 -2 -3 -3 -3 -4 -4 -4 -4 -4 -3 -3 -2 -2 -2 -2 -1
2 2 2 3 4 3 3 3 2 3 3 3 3 3 2 2 1 1 1 -1 -1 -2 -2 -2 -2 -3 -3 -3 -3 -4 -4 -4 -4 -4 -4 -4 -4 -3 -3 -3 -2 -2 -1 -1
1 1 -3 3 3 3 3 3 2 3 2 2 2 2 2 2 1 1 1 -1 -2 -2 -3 -3 -3 -3 -3 -3 -4 -4 -5 -5 -5 -5 -5 -5 -4 -4 -3 -3 -2 -2 -2 -1
-1 -1 2 3 2 3 2 3 2 2 1 1 1 1 1 1 1 1 1 -1 -2 -3 -3 -3 -3 -3 -4 -4 -5 -5 -6 -6 -6 -6 -5 -5 -5 -4 -3 -3 -3 -2 -2 -2
-2 -2 -2 2 2 1 1 2 1 1 0 0 0 0 0 0 -0 -0 -1 -2 -3 -3 -4 -4 -4 -4 -4 -5 -6 -6 -7 -7 -6 -6 -6 -5 -5 -4 -4 -4 -3 -4 -4 -4
-2 -3 1 2 1 0 0 1 0 0 -0 -0 -1 -1 -1 -1 -1 -2 -2 -3 -3 -4 -4 -4 -4 -5 -5 -6 -7 -7 -7 -7 -7 -6 -6 -6 -5 -5 -5 -5 -5 -6 -6 -6
-2 -3 -1 1 0 -0 -1 -1 -1 -1 -1 -1 -1 -1 -2 -2 -3 -3 -3 -4 -4 -4 -5 -5 -5 -6 -7 -8 -7 -7 -7 -7 -7 -7 -6 -6 -6 -6 -7 -7 -8 -8 -8 -8
-0 1 1 0 -0 -1 -1 -1 -1 -1 -1 -2 -2 -2 -3 -3 -3 -4 -4 -5 -5 -5 -5 -6 -7 -7 -8 -9 -8 -8 -7 -7 -7 -7 -7 -7 -7 -8 -8 -9 -10 -10 -10 -10
-1 1 0 -1 -2 -2 -2 -2 -2 -2 -2 -2 -3 -3 -4 -4 -4 -5 -5 -5 -6 -6 -7 -9 -8 -9 -9 -9 -8 -8 -8 -8 -7 -7 -7 -8 -9 -9 -10 -11 -11 -11 -11 -11
-1 -0 -1 -1 -2 -2 -2 -2 -2 -3 -3 -3 -3 -4 -5 -5 -5 -6 -6 -6 -7 -7 -7 -8 -9 -9 -9 -8 -8 -8 -8 -8 -8 -8 -9 -9 -10 -11 -12 -12 -12 -12 -12 -12
-1 -1 -2 -2 -2 -3 -3 -3 -3 -3 -4 -5 -5 -5 -5 -6 -6 -7 -7 -7 -7 -7 -8 -8 -10 -9 -9 -8 -8 -8 -8 -8 -9 -9 -10 -11 -11 -12 -12 -12 -12 -12 -12 -12
-2 -3 -2 -2 -3 -3 -4 -4 -4 -4 -5 -5 -6 -6 -6 -6 -7 -7 -7 -7 -7 -8 -9 -10 -9 -9 -9 -8 -8 -9 -10 -10 -10 -11 -11 -12 -13 -13 -13 -12 -12 -12 -12 -13
-3 -3 -3 -4 -4 -5 -5 -5 -5 -6 -6 -6 -7 -7 -6 -6 -7 -7 -7 -8 -9 -9 -10 -10 -9 -9 -9 -9 -10 -11 -11 -11 -11 -12 -13 -13 -13 -13 -13 -12 -12 -12 -12 -12
-4 -4 -4 -4 -4 -5 -5 -6 -6 -6 -7 -7 -7 -7 -7 -7 -7 -8 -8 -9 -9 -10 -10 -9 -9 -10 -10 -10 -11 -11 -11 -12 -13 -13 -13 -13 -13 -13 -13 -13 -12 -12 -12 -12
-3 -4 -4 -3 -4 -5 -5 -5 -6 -6 -7 -7 -8 -8 -8 -8 -8 -9 -10 -10 -10 -9 -10 -10 -10 -10 -11 -11 -12 -12 -12 -13 -13 -13 -13 -13 -13 -13 -13 -13 -13 -13 -13 -13
-3 -4 -4 -4 -5 -5 -5 -5 -6 -7 -8 -8 -8 -8 -8 -9 -9 -9 -10 -10 -10 -10 -10 -11 -11 -11 -12 -12 -12 -12 -13 -13 -13 -13 -13 -13 -13 -13 -13 -13 -13 -13 -13 -13
-3 -4 -4 -4 -5 -5 -5 -5 -6 -7 -8 -9 -9 -9 -10 -10 -10 -10 -10 -10 -10 -10 -11 -12 -12 -12 -12 -12 -12 -13 -13 -13 -13 -13 -14 -14 -14 -13 -13 -13 -13 -13 -13 -13
-4 -4 -4 -5 -5 -5 -6 -6 -7 -8 -9 -10 -10 -10 -10 -10 -10 -10 -10 -11 -11 -11 -11 -12 -12 -12 -12 -13 -13 -13 -13 -13 -14 -14 -14 -14 -14 -14 -14 -14 -14 -14 -13 -13
-5 -5 -5 -6 -6 -7 -7 -8 -9 -10 -10 -10 -10 -10 -10 -10 -10 -11 -11 -11 -12 -12 -12 -12 -12 -12 -13 -13 -13 -13 -13 -14 -14 -14 -14 -14 -14 -14 -14 -14 -14 -13 -13 -14
-6 -6 -6 -7 -7 -8 -9 -9 -10 -10 -10 -10 -10 -10 -11 -11 -12 -12 -12 -12 -12 -13 -13 -13 -13 -13 -13 -13 -13 -13 -14 -14 -14 -14 -15 -15 -14 -14 -14 -14 -14 -14 -14 -14
-7 -7 -8 -8 -8 -9 -9 -10 -10 -10 -10 -10 -11 -12 -12 -12 -13 -13 -13 -13 -13 -13 -13 -13 -13 -13 -13 -13 -13 -14 -14 -14 -14 -14 -15 -15 -15 -14 -14 -14 -14 -14 -14 -14
-8 -9 -9 -9 -9 -10 -10 -10 -10 -11 -11 -12 -12 -13 -13 -13 -13 -13 -13 -13 -13 -13 -13 -13 -13 -14 -14 -14 -14 -14 -14 -15 -14 -15 -15 -15 -15 -14 -14 -14 -14 -14 -14 -14
-10 -10 -10 -10 -10 -10 -11 -11 -12 -12 -13 -13 -13 -13 -13 -13 -13 -13 -13 -13 -13 -13 -13 -14 -14 -14 -14 -15 -15 -15 -15 -15 -15 -15 -15 -15 -14 -14 -14 -15 -14 -15 -15 -15
-10 -11 -11 -11 -11 -11 -12 -12 -12 -13 -13 -13 -13 -13 -13 -13 -14 -13 -13 -14 -14 -14 -14 -15 -15 -15 -15 -15 -15 -15 -15 -15 -15 -15 -15 -14 -14 -15 -15 -15 -15 -15 -15 -15
-11 -11 -12 -12 -12 -13 -13 -13 -13 -13 -13 -13 -13 -13 -13 -14 -14 -15 -15 -15 -15 -15 -15 -15 -15 -15 -15 -16 -15 -15 -15 -15 -15 -15 -14 -14 -15 -15 -15 -15 -15 -15 -15 -14
-12 -12 -13 -13 -13 -13 -13 -13 -13 -13 -13 -13 -13 -14 -15 -15 -15 -16 -16 -16 -16 -16 -16 -16 -15 -15 -15 -15 -15 -15 -15 -15 -15 -14 -15 -15 -15 -15 -15 -15 -15 -15 -14 -14
Height
3107 3108 3108 3109 3109 3110 3108 3109 3106 3100 3098 3101 3103 3102 3100 3099 3098 3097 3097 3096 3095 3094 3093 3092 3092 3090 3088 3086 3084 3082 3081 3079 3076 3074 3071 3068 3065 3061 3057 3053 3048 3044 3040 3035
3105 3105 3104 3103 3104 3103 3101 3101 3097 3097 3090 3097 3093 3090 3088 3088 3088 3088 3089 3088 3088 3087 3087 3086 3085 3083 3082 3080 3078 3077 3075 3072 3070 3067 3064 3060 3057 3053 3048 3044 3040 3035 3029 3023
3101 3101 3100 3098 3095 3095 3095 3094 3094 3090 3089 3087 3086 3084 3082 3080 3080 3080 3080 3080 3080 3080 3080 3079 3078 3076 3075 3073 3071 3070 3068 3065 3062 3060 3056 3052 3048 3044 3039 3034 3029 3024 3018 3012
3098 3098 3099 3092 3091 3092 3091 3089 3087 3086 3084 3082 3080 3079 3078 3076 3074 3073 3072 3072 3073 3074 3074 3073 3071 3069 3068 3066 3065 3063 3061 3058 3054 3051 3047 3043 3039 3034 3029 3024 3018 3011 3005 2999
3097 3094 3091 3087 3087 3087 3086 3086 3083 3082 3081 3079 3078 3077 3076 3074 3072 3070 3067 3066 3066 3067 3067 3066 3065 3063 3061 3059 3057 3055 3053 3050 3046 3041 3038 3033 3029 3023 3017 3011 3004 2997 2991 2984
3097 3097 3092 3086 3086 3085 3082 3081 3081 3080 3078 3076 3073 3071 3070 3069 3067 3065 3063 3062 3061 3061 3061 3060 3058 3056 3054 3052 3049 3047 3044 3041 3038 3033 3028 3023 3017 3011 3004 2997 2990 2983 2977 2971
3094 3094 3088 3085 3085 3084 3085 3087 3080 3078 3074 3071 3069 3067 3065 3063 3061 3059 3057 3056 3056 3054 3054 3053 3051 3050 3047 3044 3041 3038 3036 3033 3029 3025 3019 3013 3005 2999 2990 2983 2976 2970 2964 2957
3091 3091 3086 3084 3084 3085 3082 3078 3075 3072 3069 3066 3064 3061 3059 3056 3054 3053 3052 3051 3050 3049 3048 3046 3044 3042 3040 3037 3033 3030 3027 3024 3021 3016 3009 3002 2993 2985 2978 2971 2963 2956 2948 2942
3087 3084 3082 3080 3079 3077 3074 3071 3068 3065 3063 3059 3056 3054 3052 3049 3047 3046 3046 3045 3045 3043 3041 3038 3035 3032 3030 3029 3025 3022 3019 3015 3010 3004 2996 2988 2980 2972 2965 2959 2951 2943 2936 2928
3077 3077 3076 3075 3073 3069 3066 3063 3061 3058 3055 3052 3049 3047 3045 3043 3040 3039 3038 3038 3037 3036 3033 3030 3026 3025 3024 3022 3017 3013 3008 3004 2997 2989 2982 2975 2968 2960 2953 2947 2939 2931 2924 2916
3065 3068 3067 3066 3063 3062 3059 3056 3052 3048 3045 3042 3039 3038 3037 3035 3034 3033 3031 3029 3028 3025 3023 3022 3020 3020 3019 3013 3008 3003 2998 2991 2984 2976 2969 2962 2956 2949 2943 2938 2929 2919 2912 2904
3057 3059 3056 3055 3053 3051 3047 3044 3041 3037 3034 3032 3031 3030 3029 3028 3026 3024 3022 3020 3018 3017 3015 3015 3014 3013 3010 3004 2999 2992 2985 2978 2972 2964 2957 2951 2944 2938 2937 2930 2922 2913 2904 2895
3051 3049 3048 3046 3043 3039 3036 3033 3030 3027 3025 3025 3024 3023 3021 3020 3018 3016 3014 3013 3011 3011 3009 3008 3006 3004 2998 2993 2987 2980 2973 2967 2960 2953 2947 2941 2935 2928 2920 2919 2914 2905 2895 2888
3043 3040 3038 3037 3033 3031 3028 3026 3024 3022 3020 3020 3018 3016 3015 3013 3012 3010 3008 3007 3006 3004 3003 3001 2997 2994 2987 2981 2975 2969 2963 2957 2949 2943 2938 2932 2926 2920 2912 2904 2897 2893 2890 2880
3035 3031 3028 3027 3026 3023 3021 3020 3018 3016 3015 3013 3011 3010 3010 3009 3007 3005 3003 3000 2999 2998 2996 2992 2987 2982 2975 2969 2964 2959 2953 2947 2941 2936 2931 2924 2918 2911 2904 2896 2889 2881 2875 2870
3028 3024 3021 3019 3019 3017 3015 3014 3012 3011 3010 3009 3007 3005 3004 3003 3001 2999 2997 2995 2992 2990 2986 2981 2974 2969 2964 2959 2954 2949 2944 2938 2932 2926 2921 2915 2909 2901 2894 2888 2880 2872 2865 2858
3021 3018 3016 3015 3014 3012 3010 3008 3006 3005 3003 3002 3001 3001 2999 2997 2996 2993 2991 2987 2983 2979 2974 2967 2961 2958 2954 2949 2943 2938 2933 2929 2923 2917 2912 2906 2899 2893 2886 2878 2869 2862 2855 2849
3014 3012 3011 3010 3009 3007 3004 3002 3001 2999 2998 2997 2996 2995 2993 2990 2987 2984 2981 2975 2971 2967 2963 2956 2952 2948 2944 2938 2932 2928 2923 2918 2913 2908 2903 2897 2890 2882 2875 2867 2859 2851 2844 2838
3009 3006 3005 3003 3001 3000 2998 2997 2996 2995 2994 2992 2989 2987 2984 2981 2977 2972 2967 2962 2959 2954 2951 2947 2943 2938 2934 2929 2922 2918 2913 2908 2903 2898 2893 2887 2880 2873 2865 2857 2849 2842 2835 2827
3002 3000 2998 2996 2995 2993 2992 2992 2990 2989 2987 2984 2980 2977 2973 2970 2965 2960 2955 2951 2949 2944 2939 2936 2932 2928 2923 2919 2913 2908 2903 2898 2892 2887 2882 2875 2868 2862 2854 2847 2839 2831 2823 2817
2996 2994 2992 2990 2989 2989 2987 2986 2984 2982 2978 2974 2970 2965 2960 2956 2953 2948 2943 2939 2940 2934 2930 2926 2920 2916 2912 2907 2902 2898 2893 2887 2882 2877 2871 2865 2858 2851 2844 2836 2828 2820 2813 2807
2990 2988 2987 2986 2984 2982 2980 2978 2975 2971 2966 2963 2959 2954 2949 2946 2942 2938 2934 2929 2926 2923 2918 2914 2909 2904 2899 2894 2889 2885 2881 2876 2871 2866 2860 2854 2847 2840 2832 2824 2817 2810 2803 2797
2984 2983 2982 2980 2976 2973 2971 2968 2963 2958 2955 2952 2948 2944 2940 2935 2931 2926 2921 2920 2915 2910 2905 2900 2895 2890 2885 2880 2875 2871 2867 2864 2860 2855 2850 2844 2837 2829 2821 2813 2806 2800 2794 2788
2978 2976 2973 2970 2966 2962 2959 2957 2953 2949 2945 2942 2939 2935 2928 2923 2920 2917 2911 2907 2902 2897 2892 2887 2881 2876 2870 2866 2862 2858 2855 2853 2849 2845 2840 2834 2827 2819 2811 2804 2798 2791 2786 2782
2970 2966 2963 2959 2955 2953 2949 2946 2943 2941 2937 2933 2930 2925 2919 2913 2906 2903 2899 2894 2889 2883 2879 2874 2869 2864 2860 2855 2852 2848 2846 2843 2840 2835 2829 2823 2816 2809 2803 2796 2789 2784 2780 2778
2960 2956 2953 2950 2947 2943 2940 2937 2933 2929 2924 2920 2917 2911 2907 2901 2895 2889 2886 2882 2878 2873 2868 2864 2859 2854 2850 2846 2843 2840 2837 2834 2830 2825 2820 2814 2807 2801 2795 2788 2783 2779 2777 2775
2949 2946 2944 2942 2940 2936 2932 2928 2923 2919 2913 2907 2903 2898 2893 2889 2885 2881 2877 2873 2868 2864 2859 2855 2851 2846 2841 2838 2835 2832 2829 2825 2821 2816 2811 2805 2800 2794 2789 2783 2779 2776 2774 2773
Wind_Speed
7 10 13 15 17 18 23 24 27 36 38 35 32 33 33 30 27 25 25 26 28 29 29 28 27 27 25 23 21 21 22 23 25 27 29 31 33 34 35 36 36 36 37 37
10 12 15 19 19 22 26 29 35 37 42 31 25 25 25 20 26 27 27 28 30 30 30 29 28 29 25 23 23 24 26 28 29 31 32 34 35 35 35 35 36 37 38 41
5 8 13 17 6 7 11 15 17 24 25 22 20 20 20 20 24 25 25 27 29 30 30 29 30 25 23 23 25 27 29 31 32 33 33 33 33 34 36 37 39 41 43 45
7 9 1 3 6 15 15 9 12 13 13 15 15 16 17 16 17 19 21 23 25 28 28 28 24 24 24 26 28 29 30 30 32 32 32 32 34 37 40 42 44 46 46 47
4 4 13 14 5 5 14 18 14 6 5 10 19 20 17 19 18 18 18 19 24 26 26 24 25 26 27 29 30 30 30 30 31 32 34 37 41 45 48 50 50 50 50 50
4 4 4 3 8 15 14 7 2 8 17 25 31 30 25 23 21 20 18 19 21 24 24 25 26 28 29 31 30 30 30 31 32 34 39 45 50 52 54 55 54 53 52 51
13 8 9 14 6 9 7 8 16 25 31 33 30 30 28 27 25 22 20 21 23 25 25 26 28 28 29 30 32 32 33 34 36 40 47 52 55 57 59 57 55 52 51 50
6 7 7 2 7 18 23 27 30 29 29 30 32 34 34 28 24 21 22 21 22 24 26 27 28 28 28 30 34 35 36 38 41 47 52 55 59 59 57 54 53 51 51 50
11 12 20 24 28 27 31 33 31 32 32 33 33 32 30 27 24 23 22 23 25 26 27 28 30 32 29 31 36 38 40 44 48 52 55 58 58 55 53 50 49 48 48 48
27 29 26 25 31 31 28 29 30 33 35 35 34 30 27 27 26 25 25 26 27 27 27 29 31 29 29 33 39 42 46 50 53 57 58 55 52 50 48 46 45 47 48 46
38 34 35 32 28 27 32 36 39 39 39 37 35 32 28 26 25 26 27 28 28 31 32 29 26 25 30 37 42 47 50 54 57 55 53 52 48 45 42 40 46 48 47 45
34 29 32 33 33 37 40 41 41 41 36 34 30 26 24 25 26 27 29 30 32 31 31 24 25 31 36 42 47 50 55 54 51 51 49 46 44 42 36 38 42 43 42 44
33 31 32 37 39 39 40 40 31 25 24 23 21 23 25 26 28 29 30 31 32 26 21 26 33 38 42 47 51 51 48 48 47 45 42 40 39 42 45 40 42 44 44 44
31 33 35 34 36 36 33 26 25 28 29 27 27 25 26 28 27 28 31 26 19 22 27 34 39 43 48 50 45 43 43 41 40 38 37 37 39 42 44 47 49 47 42 42
30 34 36 35 30 24 25 21 18 19 18 19 19 20 23 26 28 25 20 23 26 30 35 40 44 47 46 40 40 41 39 37 35 33 34 37 41 42 44 46 48 49 45 40
26 26 26 24 21 20 20 22 22 20 21 20 20 21 23 23 19 21 23 28 35 39 42 46 47 41 37 37 38 38 36 34 33 35 37 40 42 43 45 48 49 47 44 41
22 18 19 18 18 19 20 21 21 20 19 20 20 20 22 23 24 27 32 38 43 46 46 41 39 36 36 37 39 38 36 35 35 37 39 42 44 44 46 50 50 46 44 44
20 19 18 17 18 21 22 22 20 18 20 21 22 22 25 28 33 39 43 48 48 44 37 35 34 36 36 36 36 36 37 37 38 39 40 42 44 45 47 50 49 46 47 47
19 18 19 20 21 21 21 20 19 20 20 23 26 30 36 40 44 47 48 46 42 37 30 31 33 36 34 34 35 36 37 38 40 40 41 43 44 45 49 49 48 47 48 46
18 20 21 21 20 17 17 20 20 21 25 32 37 41 45 46 46 45 43 40 32 32 34 35 37 35 34 34 35 38 38 38 39 41 43 44 47 49 50 50 49 48 46 42
19 20 20 20 19 19 20 24 28 32 37 42 46 47 47 45 40 38 37 37 31 34 38 39 38 37 38 40 41 41 41 41 40 41 43 46 48 50 51 50 51 47 42 40
19 20 21 21 24 27 30 34 39 43 46 45 43 42 40 38 37 38 38 39 40 41 41 39 39 41 43 44 45 45 43 42 41 41 44 46 48 50 50 51 47 42 40 37
21 23 25 28 33 36 39 40 40 40 39 38 38 37 37 39 39 41 41 38 39 40 43 44 45 46 46 47 46 45 43 40 39 40 43 46 46 48 50 47 42 40 37 31
25 29 32 36 39 38 37 34 35 34 34 34 34 35 38 41 41 41 43 43 43 43 45 45 45 44 42 41 40 38 36 35 36 39 43 43 45 47 44 40 38 35 28 22
32 35 35 33 33 32 32 32 33 32 33 34 35 38 40 43 46 44 43 43 42 41 40 38 37 36 36 36 34 32 32 33 35 40 41 42 44 40 37 35 33 27 20 15
31 31 31 29 28 27 29 32 33 36 41 44 44 44 42 41 39 38 37 35 35 34 34 33 33 34 34 32 30 29 29 31 35 36 38 40 36 34 33 31 26 19 15 10
29 27 26 27 25 29 32 35 40 43 44 44 43 40 38 36 35 34 34 34 33 32 32 32 33 32 30 28 27 26 27 30 31 34 36 31 30 30 29 25 19 14 10 7
Wind_Direction
261 266 272 273 273 271 263 267 257 280 282 291 294 293 288 286 282 279 278 275 271 273 275 284 293 298 293 293 296 298 300 301 301 301 301 302 305 307 308 309 309 308 305 303
289 283 282 283 279 272 267 266 269 280 287 305 303 292 287 275 271 274 276 272 270 272 277 283 289 294 288 289 293 296 296 297 298 299 303 305 307 309 309 308 307 306 305 304
274 280 295 292 290 284 290 289 298 293 308 309 303 307 309 299 284 282 275 266 267 270 275 282 290 285 283 286 290 293 294 296 300 303 307 309 312 313 313 312 311 308 306 304
263 293 296 217 283 298 300 324 323 316 317 312 307 298 300 297 289 284 274 262 261 268 274 282 280 279 283 286 289 292 296 299 303 306 308 309 311 313 314 314 313 311 309 307
267 241 281 272 256 304 316 314 310 323 358 346 334 328 323 313 309 300 287 263 258 266 273 274 276 281 287 290 292 293 297 302 304 305 307 311 314 317 317 316 314 313 311 311
269 292 260 262 306 315 317 326 342 321 313 314 316 318 318 312 309 302 286 269 264 268 271 273 279 285 287 288 291 295 298 300 302 306 310 315 317 317 317 317 315 314 313 312
245 254 275 292 293 335 338 317 301 302 302 303 305 306 310 309 305 300 285 272 268 268 269 276 281 284 288 290 294 297 299 300 303 308 312 315 316 317 316 315 315 314 313 311
225 241 291 216 298 324 307 303 302 299 296 296 297 298 303 302 302 290 279 271 267 270 276 280 282 285 287 292 295 296 299 301 305 309 313 315 315 315 314 314 315 315 312 311
253 273 284 291 299 300 299 298 302 300 298 296 296 297 294 292 291 287 277 272 274 277 278 278 277 282 291 294 296 299 301 303 308 312 312 313 313 312 313 315 315 313 313 313
279 288 290 291 297 295 294 301 304 303 299 296 295 292 289 287 284 277 274 275 277 274 271 271 279 291 300 298 297 299 303 308 311 311 312 312 313 314 314 316 316 316 316 313
284 293 297 296 294 288 291 297 298 296 292 288 286 284 281 276 274 274 274 272 269 268 272 279 289 299 297 297 300 304 308 310 311 311 312 313 314 315 317 322 320 319 317 313
290 291 288 294 297 297 297 299 299 298 293 291 288 281 276 271 269 268 267 268 270 277 283 298 305 299 301 303 304 308 309 310 312 314 314 316 317 317 317 322 327 321 317 315
289 288 291 293 293 294 297 302 303 301 297 292 285 279 272 271 270 270 273 278 281 295 311 308 301 303 304 305 308 308 309 313 315 315 317 320 321 320 319 317 323 325 322 318
289 291 291 291 292 294 298 299 298 301 300 293 290 286 283 279 284 285 284 292 300 311 305 300 302 303 304 306 305 309 314 317 317 319 322 321 320 320 321 321 321 325 321 317
293 291 292 297 299 296 295 299 303 308 308 305 302 299 297 297 298 300 299 309 311 302 299 300 301 304 304 304 308 313 316 319 319 319 320 321 321 320 321 323 322 321 320 318
295 294 291 296 299 294 291 291 293 295 294 293 296 296 297 298 302 312 312 303 300 301 301 303 304 303 302 305 309 311 314 318 316 318 320 320 322 321 323 323 322 321 319 321
300 293 294 296 297 296 294 291 288 284 281 282 287 293 299 303 305 304 302 299 300 303 305 304 300 301 304 308 307 308 309 312 313 314 316 318 320 320 319 323 324 321 321 322
301 291 289 290 292 300 302 293 284 279 282 288 291 294 295 297 299 300 302 302 303 305 306 296 299 303 307 306 306 308 309 310 310 310 313 317 319 320 322 324 322 321 321 319
310 300 290 284 283 291 298 285 280 283 288 290 293 294 296 299 302 303 303 303 306 307 302 297 301 305 304 307 310 312 311 309 307 309 312 314 319 322 323 323 322 320 316 315
311 301 293 288 282 282 287 285 284 288 293 295 297 299 301 302 302 303 302 304 308 303 301 305 306 303 302 305 306 310 312 309 308 310 311 314 318 320 323 321 318 318 318 317
305 293 285 281 279 285 288 289 293 297 298 299 300 301 301 302 305 305 304 302 305 302 304 306 304 301 300 300 299 304 307 307 308 310 311 314 315 318 319 319 320 319 317 315
289 280 279 280 286 291 292 294 297 297 297 298 299 302 304 306 305 303 302 303 303 303 302 301 300 299 298 297 297 299 301 302 306 309 312 313 315 316 318 319 318 318 316 315
278 280 283 287 290 293 296 298 297 297 300 302 303 305 304 304 303 303 303 302 301 301 301 301 301 300 299 298 298 298 297 298 302 308 312 314 314 316 318 319 318 318 317 315
282 286 290 293 296 299 300 302 300 302 303 304 307 306 302 299 298 299 300 302 302 301 301 302 303 303 302 301 300 299 298 297 302 308 312 313 315 317 319 318 320 320 318 316
289 294 297 297 297 300 301 301 303 308 308 306 305 303 304 303 302 303 301 301 302 303 305 306 306 305 303 303 302 301 299 299 303 308 312 314 317 318 320 321 322 321 319 319
297 296 296 299 305 306 305 309 311 311 309 309 309 307 305 304 303 303 305 307 310 310 309 310 311 313 308 305 303 301 300 301 306 311 313 317 319 321 324 325 324 321 319 317
294 297 299 301 304 306 308 308 311 313 311 311 312 312 311 310 309 311 314 314 313 315 316 313 314 312 310 307 306 305 305 309 312 314 318 320 323 327 328 329 328 324 320 319